Volver al catálogo

FENGYUN 1C DEB

LostPO
NORAD 37409·DEBRIS·🇨🇳 China

Lanzado May 10, 1999 desde Taiyuan Satellite Launch Center

Loading…

Próximos Pases (próximas 24 horas)

TLE

ObsoletoSource: Space-Track

Época: Sep 2, 2022, 15:51 UTC

1 37409U 99025EGB 22245.66055397  .00003519  00000-0  17893-2 0  9992
2 37409  97.7916 198.3890 0121502  36.5955 324.3444 14.12623884760428

Sigue FENGYUN 1C DEB en tiempo real con AllMySat

Download on the App Store